[[{"header":{"parameterUnit":"m.s-1","parameterCategory":1,"la1":30.2991,"la2":30.254,"lo1":-89.0895,"lo2":-89.0444,"dy":0.0017,"dx":0.0017,"nx":28,"ny":28,"refTime":"2024-07-04T03:00:00:Z","depth":0,"parameterNumber":2,"parameterNumberName":"U-component_of_WINDS"},"data":[0,0,0,0,0,0,0,0,0,0,0,0,0,0,0,0,0,0,0,0,0,0,0,0,0,0,0,0,0,0,0,0,0,0,0,0,0,0,0,0,0,0,0,0,0,0,0,0,0,0,0,0,0,0,0,0,0,0,1.8103,1.8104,0,1.8218,1.822,1.8221,1.8281,1.8281,1.8281,1.8281,1.8401,1.8404,1.8407,0,0,0,0,0,0,0,0,0,0,0,0,0,1.7936,1.7939,1.8103,1.8104,1.8106,1.8218,1.822,1.8221,1.8281,1.8281,1.8281,1.8281,1.84,1.8404,1.8408,0,0,0,0,0,0,0,0,0,0,0,0,0,1.8026,1.794,1.8103,1.8149,1.8154,1.8218,1.822,1.8222,1.8281,1.8281,1.8281,1.8281,1.8399,1.8403,1.8408,1.8435,0,0,1.8422,1.8424,0,0,0,0,0,0,0,0,1.8021,1.8032,1.8141,1.8146,1.8152,1.8235,1.8205,1.8293,1.8281,1.8233,1.8281,1.8281,1.8346,1.8355,1.8377,1.8441,1.8446,1.8423,1.8426,1.8428,1.8429,0,0,0,0,0,0,0,1.8015,1.8027,1.8149,1.8142,1.8149,1.8165,1.8178,1.8222,1.8287,1.8237,1.8241,1.8254,1.8349,1.8372,1.838,1.8448,1.8423,1.8427,1.843,1.8432,1.8541,1.8541,0,0,0,0,0,0,1.8001,1.8022,1.8145,1.8152,1.8085,1.8168,1.8182,1.8208,1.8287,1.8299,1.8254,1.8257,1.8364,1.8374,1.8384,1.8422,1.8428,1.8432,1.8435,1.8541,1.8541,1.8541,0,0,0,0,0,0,1.7997,1.8011,1.814,1.8088,1.8106,1.817,1.82,1.8211,1.8233,1.83,1.8312,1.8265,1.8364,1.8378,1.8422,1.8427,1.8434,1.8439,1.8541,1.8541,1.8541,1.8497,0,0,0,0,0,0,1.7992,1.8009,1.8019,1.8088,1.8108,1.8175,1.82,1.8213,1.8241,1.8246,1.8314,1.8325,1.8365,1.8415,1.8427,1.8433,1.8442,1.8541,1.8541,1.8541,1.8498,1.8495,1.8493,0,0,0,0,0,1.7986,1.8002,1.802,1.8034,1.8122,1.8175,1.8187,1.8233,1.8241,1.8253,1.8296,1.8323,1.8424,1.8419,1.8433,1.8441,1.8541,1.8541,1.8541,1.8499,1.8496,1.8493,0,0,0,0,0,0,1.7933,1.8012,1.8032,1.8072,1.8116,1.8185,1.8201,1.8227,1.8271,1.8274,1.8329,1.8344,1.8383,1.8417,1.8409,1.8472,1.8486,1.8488,1.8449,1.8446,1.8443,1.8434,1.8446,0,0,0,0,0,1.7926,1.7962,1.8029,1.8058,1.8079,1.8136,1.8161,1.8192,1.8241,1.826,1.8306,1.8353,1.8396,1.8423,1.8466,1.8503,1.8519,1.8516,1.8513,1.8511,1.8513,1.8536,1.8535,1.8542,1.8542,1.8542,0,0,1.7912,1.796,1.7979,1.8048,1.8087,1.8123,1.8151,1.8189,1.8217,1.8266,1.8311,1.8346,1.8403,1.8444,1.8464,1.8473,1.8514,1.8511,1.8508,1.8512,1.8536,1.8535,1.8535,1.8542,1.8542,1.8542,0,0,1.7905,1.7944,1.7973,1.801,1.8068,1.8106,1.8113,1.8178,1.8203,1.8249,1.8287,1.8322,1.8394,1.8432,1.8461,1.847,1.8497,1.8483,1.8469,1.8491,1.8491,1.849,1.8494,1.8495,1.8484,1.8484,1.8484,0,1.788,1.7936,1.7984,1.8019,1.8049,1.8095,1.8125,1.8159,1.8228,1.8248,1.8257,1.8348,1.8389,1.8441,1.8443,1.8465,1.8475,1.8475,1.8487,1.8487,1.8488,1.8492,1.8493,1.8482,1.8482,1.8483,1.8483,0,1.7903,1.7942,1.7958,1.8023,1.8054,1.8086,1.814,1.8167,1.8195,1.8232,1.8279,1.833,1.8384,1.8399,1.8427,1.8455,1.8458,1.8476,1.8491,1.8484,1.8489,1.8491,1.8479,1.848,1.848,1.8481,0,0,1.7866,1.7957,1.7962,1.7993,1.806,1.8091,1.8126,1.8179,1.8201,1.8247,1.8278,1.8338,1.8355,1.8388,1.8421,1.8441,1.8445,1.8456,1.8459,1.8453,1.8479,1.8465,1.8466,1.8463,1.8464,1.8464,1.8475,0,1.7869,1.7933,1.7977,1.8024,1.806,1.8105,1.8136,1.8181,1.8217,1.8254,1.8294,1.8336,1.8355,1.8375,1.8396,1.844,1.8451,1.844,1.8494,1.8495,1.8478,1.8469,1.8454,1.8461,1.8477,1.8477,1.8477,0,1.788,1.7925,1.7975,1.8039,1.8056,1.8083,1.8135,1.817,1.8222,1.8247,1.8284,1.8318,1.8358,1.8369,1.8425,1.8417,1.8442,1.8466,1.8468,1.8475,1.8486,1.8476,1.8465,1.8466,1.8481,1.848,1.848,0,1.7848,1.7921,1.7961,1.7985,1.8061,1.8079,1.8111,1.8164,1.8193,1.8239,1.8259,1.8309,1.8336,1.8375,1.8422,1.8426,1.8474,1.8488,1.8496,1.8495,1.8504,1.8503,1.8497,1.852,1.8519,1.8519,1.8519,0,1.7847,1.7876,1.7947,1.7972,1.8006,1.8058,1.8091,1.8127,1.8174,1.8207,1.8249,1.8279,1.8339,1.8377,1.8415,1.8456,1.8468,1.849,1.8499,1.8486,1.8483,1.8503,1.8504,1.852,1.852,1.852,1.852,0,1.7816,1.7865,1.7912,1.798,1.7998,1.802,1.8079,1.8105,1.8144,1.8185,1.8198,1.8259,1.8305,1.8356,1.842,1.8446,1.8485,1.8498,1.8467,1.8472,1.8477,1.8476,1.8484,1.8488,1.8507,1.8507,1.8506,0,1.7812,1.7836,1.7906,1.7931,1.7963,1.8002,1.8032,1.8084,1.8114,1.8176,1.8195,1.8245,1.8287,1.836,1.8411,1.846,1.8475,1.8475,1.8483,1.8469,1.8476,1.8474,1.8477,1.8472,1.8472,1.8471,1.8471,0,1.7799,1.7823,1.7864,1.7914,1.7949,1.7991,1.8034,1.8052,1.8113,1.8145,1.8193,1.8226,1.8292,1.8341,1.8397,1.8431,1.8462,1.8468,1.8473,1.8459,1.844,1.8451,1.846,1.8468,1.8468,1.8468,1.8468,1.8469,1.7782,1.7806,1.7859,1.7904,1.7943,1.7983,1.8011,1.8053,1.8094,1.8151,1.8179,1.8228,1.8281,1.8359,1.8393,1.8432,1.8441,1.8447,1.8449,1.845,1.8446,1.8434,1.8442,1.8442,1.8442,1.8442,1.8443,0,1.7772,1.7809,1.785,1.791,1.7945,1.797,1.802,1.8049,1.809,1.8137,1.8178,1.8234,1.8283,1.8337,1.8389,1.841,1.8425,1.8422,1.8421,1.8428,1.8435,1.8426,1.8408,1.8408,1.8408,1.8408,1.8408,1.8408,1.7771,1.7812,1.7842,1.7902,1.794,1.7987,1.8013,1.8051,1.8089,1.8149,1.8189,1.8224,1.8275,1.8331,1.8376,1.8391,1.8408,1.8401,1.842,1.8425,1.8428,1.843,1.8422,1.8404,1.8404,1.841,1.841,1.841]},{"header":{"parameterUnit":"m.s-1","parameterCategory":1,"la1":30.2991,"la2":30.254,"lo1":-89.0895,"lo2":-89.0444,"dy":0.0017,"dx":0.0017,"nx":28,"ny":28,"refTime":"2024-07-04T03:00:00:Z","depth":0,"parameterNumber":3,"parameterNumberName":"V-component_of_WINDS"},"data":[0,0,0,0,0,0,0,0,0,0,0,0,0,0,0,0,0,0,0,0,0,0,0,0,0,0,0,0,0,0,0,0,0,0,0,0,0,0,0,0,0,0,0,0,0,0,0,0,0,0,0,0,0,0,0,0,0,0,3.2573,3.2573,0,3.263,3.2631,3.2632,3.2656,3.2656,3.2656,3.2656,3.2709,3.2711,3.2712,0,0,0,0,0,0,0,0,0,0,0,0,0,3.2477,3.2479,3.2573,3.2573,3.2574,3.263,3.2631,3.2632,3.2656,3.2656,3.2656,3.2656,3.2709,3.2711,3.2712,0,0,0,0,0,0,0,0,0,0,0,0,0,3.2525,3.2479,3.2573,3.2593,3.2596,3.263,3.2631,3.2632,3.2656,3.2656,3.2656,3.2656,3.2708,3.271,3.2713,3.273,0,0,3.272,3.2721,0,0,0,0,0,0,0,0,3.2522,3.2528,3.2589,3.2592,3.2595,3.2636,3.2617,3.2665,3.2656,3.2633,3.2656,3.2655,3.2685,3.2689,3.27,3.2732,3.2734,3.272,3.2721,3.2722,3.2723,0,0,0,0,0,0,0,3.2519,3.2526,3.2595,3.259,3.2593,3.2597,3.2604,3.2626,3.2659,3.2635,3.2637,3.2644,3.2686,3.2698,3.2701,3.2735,3.272,3.2722,3.2723,3.2724,3.2783,3.2783,0,0,0,0,0,0,3.2513,3.2523,3.2594,3.2597,3.2558,3.2599,3.2607,3.2623,3.2659,3.2664,3.2644,3.2644,3.2694,3.2699,3.2703,3.2725,3.2722,3.2724,3.2726,3.2783,3.2783,3.2783,0,0,0,0,0,0,3.2511,3.2519,3.2591,3.2561,3.257,3.2601,3.2619,3.2624,3.2636,3.2665,3.2671,3.265,3.2694,3.27,3.2723,3.2727,3.2725,3.2727,3.2783,3.2783,3.2783,3.2769,0,0,0,0,0,0,3.2508,3.2518,3.2527,3.2561,3.2572,3.2612,3.2619,3.2625,3.264,3.2642,3.2673,3.2677,3.2694,3.272,3.2725,3.273,3.2729,3.2782,3.2783,3.2783,3.2769,3.2769,3.2769,0,0,0,0,0,3.2505,3.2519,3.2527,3.2535,3.2583,3.2612,3.2618,3.2639,3.264,3.2648,3.2667,3.2677,3.2726,3.2722,3.2728,3.2734,3.2782,3.2783,3.2783,3.277,3.2769,3.2769,0,0,0,0,0,0,3.2483,3.2524,3.2533,3.256,3.2583,3.2616,3.2627,3.2638,3.2659,3.2659,3.2682,3.2689,3.271,3.2724,3.2719,3.2752,3.2755,3.2756,3.2742,3.2742,3.2741,3.2738,3.2731,0,0,0,0,0,3.2482,3.2504,3.2538,3.2558,3.2569,3.2596,3.2609,3.2623,3.2647,3.2656,3.2676,3.2697,3.2718,3.273,3.2751,3.2771,3.2778,3.2778,3.2778,3.2778,3.2779,3.279,3.2791,3.2785,3.2785,3.2785,0,0,3.2479,3.2504,3.2516,3.2554,3.2574,3.2594,3.2604,3.2625,3.264,3.2658,3.2682,3.2698,3.2722,3.2744,3.2755,3.2757,3.2782,3.2778,3.2778,3.2779,3.279,3.2791,3.2791,3.2785,3.2785,3.2785,0,0,3.2484,3.2505,3.2525,3.2544,3.2573,3.2591,3.2595,3.2627,3.2639,3.2663,3.2677,3.2694,3.2729,3.2746,3.2759,3.2769,3.2778,3.2774,3.2772,3.2783,3.2783,3.2784,3.2787,3.2788,3.2775,3.2775,3.2775,0,3.2476,3.2509,3.2532,3.2553,3.2569,3.2588,3.2606,3.2623,3.2657,3.2666,3.2668,3.2712,3.273,3.2755,3.2758,3.2768,3.2772,3.2771,3.2782,3.2783,3.2783,3.2787,3.2788,3.2775,3.2775,3.2775,3.2775,0,3.2498,3.252,3.2532,3.2566,3.2582,3.2602,3.2626,3.2639,3.2651,3.2668,3.2691,3.2713,3.2738,3.2745,3.2756,3.2772,3.2772,3.2778,3.2781,3.2783,3.2786,3.2788,3.2774,3.2774,3.2774,3.2775,0,0,3.2492,3.2538,3.2542,3.2557,3.259,3.2607,3.2626,3.2652,3.2663,3.2685,3.2701,3.2729,3.2735,3.2749,3.2762,3.2771,3.2777,3.2776,3.2777,3.2775,3.2795,3.2791,3.2792,3.2784,3.2784,3.2784,3.2793,0,3.2501,3.2539,3.256,3.2588,3.2608,3.2626,3.2642,3.2663,3.2679,3.2697,3.2713,3.2733,3.2738,3.2747,3.2757,3.2775,3.2782,3.2774,3.2797,3.2798,3.2791,3.2794,3.279,3.2797,3.2794,3.2795,3.2795,0,3.2518,3.2541,3.2572,3.2602,3.2612,3.2626,3.2651,3.2669,3.2692,3.2702,3.2719,3.2732,3.2751,3.2752,3.2777,3.2772,3.2782,3.2792,3.2792,3.2795,3.2797,3.2797,3.28,3.2801,3.2797,3.2797,3.2797,0,3.251,3.2549,3.2572,3.2585,3.2621,3.2631,3.2646,3.2669,3.2683,3.2704,3.2713,3.2735,3.2747,3.2763,3.278,3.278,3.2804,3.2807,3.2812,3.2811,3.2817,3.2816,3.2821,3.2823,3.2823,3.2823,3.2823,0,3.2518,3.2536,3.2569,3.2584,3.2603,3.2626,3.2644,3.266,3.2681,3.2697,3.2713,3.2727,3.275,3.2767,3.278,3.2799,3.2804,3.2812,3.2815,3.2811,3.281,3.2818,3.2818,3.2823,3.2823,3.2823,3.2823,0,3.2513,3.2536,3.2563,3.2595,3.2604,3.2617,3.2643,3.2657,3.2673,3.2693,3.2699,3.2724,3.2744,3.2764,3.279,3.2799,3.2818,3.2822,3.2811,3.2813,3.2817,3.2816,3.2828,3.283,3.283,3.283,3.283,0,3.2518,3.2532,3.2566,3.2579,3.2595,3.2615,3.263,3.2651,3.2665,3.2693,3.2702,3.2724,3.2743,3.2774,3.2794,3.2814,3.2819,3.2822,3.2822,3.2817,3.2819,3.2818,3.2819,3.2821,3.2821,3.2821,3.2821,0,3.2522,3.2533,3.2555,3.258,3.2597,3.2618,3.2638,3.2647,3.2672,3.2687,3.2709,3.2724,3.2752,3.2773,3.2795,3.2808,3.2818,3.2821,3.2823,3.2818,3.2811,3.2815,3.281,3.282,3.282,3.282,3.282,3.282,3.2522,3.2536,3.2562,3.2585,3.2603,3.2622,3.2636,3.2654,3.2674,3.27,3.271,3.2732,3.2754,3.2785,3.2798,3.2814,3.2817,3.282,3.2821,3.2821,3.282,3.2808,3.2818,3.2818,3.2818,3.2818,3.2819,0,3.2528,3.2546,3.2567,3.2596,3.2613,3.2623,3.2646,3.2659,3.2679,3.2699,3.2718,3.2742,3.2762,3.2783,3.2804,3.2813,3.2818,3.2818,3.2817,3.282,3.2817,3.2813,3.2813,3.2813,3.2813,3.2813,3.2813,3.2813,3.2533,3.2556,3.2569,3.2601,3.2618,3.2641,3.2653,3.267,3.2686,3.2714,3.2731,3.2745,3.2765,3.2787,3.2806,3.2811,3.2818,3.2817,3.2823,3.282,3.282,3.2821,3.2817,3.2818,3.2818,3.2825,3.2825,3.2825]}]]